FW5145 Weather Reports


Display with metric or nautical units.
time (UTC)temp
F
wind
direction
speed
MPH
gust
MPH
rain 1hr
in
rain 24hr
in
rain mn
in
humidity
%
barometer
mb
20260506215033 49 0 0.0 0.0 0.00 0.00 0.00 100 1014.9
20260506214541 49 0 0.0 0.0 0.00 0.00 0.00 100 1014.9
20260506214036 49 0 0.0 0.0 0.00 0.00 0.00 100 1015.0
20260506213539 49 0 0.0 0.0 0.00 0.00 0.00 100 1015.0
20260506213048 49 0 0.0 0.0 0.00 0.00 0.00 100 1014.9
20260506212532 49 0 0.0 0.0 0.00 0.00 0.00 100 1014.9
20260506212039 49 0 0.0 0.0 0.00 0.00 0.00 100 1014.7
20260506211552 49 0 0.0 0.0 0.00 0.00 0.00 100 1014.8
20260506211035 50 0 0.0 0.0 0.00 0.00 0.00 100 1014.8
20260506210531 50 0 0.0 0.0 0.00 0.00 0.00 100 1014.7
20260506210045 50 0 0.0 0.0 0.00 0.00 0.00 100 1014.7
20260506205534 50 0 0.0 0.0 0.00 0.00 0.00 100 1014.7
20260506205032 50 0 0.0 0.0 0.00 0.00 0.00 100 1014.7
20260506204556 50 0 0.0 0.0 0.00 0.00 0.00 100 1014.8
20260506204031 50 0 0.0 0.0 0.00 0.00 0.00 100 1014.7
20260506203536 50 0 0.0 0.0 0.00 0.00 0.00 100 1014.7
20260506203045 50 0 0.0 0.0 0.00 0.00 0.00 100 1014.7
20260506202533 50 0 0.0 0.0 0.00 0.00 0.00 100 1014.7
20260506202035 50 0 0.0 0.0 0.00 0.00 0.00 100 1014.6
20260506201545 50 0 0.0 0.0 0.00 0.00 0.00 100 1014.6
20260506201031 50 0 0.0 0.0 0.00 0.00 0.00 100 1014.7
20260506200534 50 0 0.0 0.0 0.00 0.00 0.00 100 1014.7
20260506200045 50 0 0.0 0.0 0.00 0.00 0.00 100 1014.6
20260506195533 51 0 0.0 0.0 0.00 0.00 0.00 100 1014.6
20260506195032 51 0 0.0 0.0 0.00 0.00 0.00 100 1014.5
20260506194544 51 0 0.0 0.0 0.00 0.00 0.00 100 1014.5
20260506194034 51 0 0.0 1.0 0.00 0.00 0.00 100 1014.5
20260506193531 51 0 0.0 1.0 0.00 0.00 0.00 100 1014.4
20260506193049 51 0 0.0 1.0 0.00 0.00 0.00 100 1014.2
20260506192532 51 0 0.0 1.0 0.00 0.00 0.00 100 1014.3
20260506192032 51 0 0.0 1.0 0.00 0.00 0.00 100 1014.3
20260506191543 51 0 0.0 1.0 0.00 0.00 0.00 100 1014.2
20260506191033 51 0 0.0 3.0 0.00 0.00 0.00 100 1014.2
20260506190531 51 0 0.0 3.0 0.00 0.00 0.00 100 1014.2
20260506190042 51 58 0.0 3.0 0.00 0.00 0.00 100 1014.0
20260506185531 51 15 1.0 4.0 0.00 0.00 0.00 100 1014.0
20260506185031 52 0 0.0 4.0 0.00 0.00 0.00 100 1014.0
20260506184541 52 0 0.0 5.0 0.00 0.00 0.00 100 1013.9
20260506184035 52 41 1.0 5.0 0.00 0.00 0.00 100 1014.0
20260506183532 52 50 2.0 5.0 0.00 0.00 0.00 100 1013.9
20260506183037 52 92 1.0 5.0 0.00 0.00 0.00 100 1013.9
20260506182532 52 58 2.0 5.0 0.00 0.00 0.00 100 1013.8
20260506182032 52 42 1.0 3.0 0.00 0.00 0.00 100 1013.8
20260506181556 52 53 0.0 5.0 0.00 0.00 0.00 100 1013.7
20260506181033 52 55 1.0 5.0 0.00 0.00 0.00 100 1013.6
20260506180532 52 53 2.0 5.0 0.00 0.00 0.00 100 1013.5
20260506180044 52 36 1.0 4.0 0.00 0.00 0.00 100 1013.5
20260506175531 52 102 1.0 8.0 0.00 0.00 0.00 100 1013.5
20260506175031 52 39 2.0 8.0 0.00 0.00 0.00 100 1013.4
20260506174542 53 5 2.0 6.0 0.00 0.00 0.00 100 1013.4
20260506174035 53 49 2.0 6.0 0.00 0.00 0.00 100 1013.3
20260506173534 53 23 2.0 6.0 0.00 0.00 0.00 100 1013.4
20260506173104 53 17 2.0 11.0 0.00 0.00 0.00 100 1013.3
20260506172535 53 61 4.0 11.0 0.00 0.00 0.00 100 1013.2
20260506172035 53 5 2.0 10.0 0.00 0.00 0.00 100 1013.2
20260506171542 53 11 3.0 10.0 0.00 0.00 0.00 100 1013.2
20260506171035 53 352 3.0 10.0 0.00 0.00 0.00 100 1013.1
20260506170535 53 37 2.0 10.0 0.00 0.00 0.00 100 1013.0
20260506170051 53 71 2.0 6.0 0.00 0.00 0.00 100 1013.1
20260506165533 53 10 2.0 6.0 0.00 0.00 0.00 100 1013.1
20260506165034 53 19 1.0 6.0 0.00 0.00 0.00 100 1013.0
20260506164543 53 48 1.0 5.0 0.00 0.00 0.00 100 1013.0
20260506164034 53 16 1.0 5.0 0.00 0.00 0.00 100 1013.0
20260506163531 53 11 1.0 5.0 0.00 0.00 0.00 100 1013.1
20260506163053 53 15 2.0 6.0 0.00 0.00 0.00 100 1013.2
20260506162537 53 5 2.0 6.0 0.00 0.00 0.00 100 1013.2
20260506162031 53 32 2.0 8.0 0.00 0.00 0.00 100 1013.2
20260506161542 53 5 3.0 8.0 0.00 0.00 0.00 100 1013.0
20260506161035 53 0 2.0 8.0 0.00 0.00 0.00 100 1013.1
20260506160532 53 39 2.0 8.0 0.00 0.00 0.00 100 1013.2
20260506160042 54 34 4.0 9.0 0.00 0.00 0.00 100 1013.2
20260506155531 54 360 2.0 12.0 0.00 0.00 0.00 100 1013.2
20260506155033 54 10 5.0 12.0 0.00 0.00 0.00 100 1013.2
20260506154606 54 360 3.0 10.0 0.00 0.00 0.00 100 1013.1
20260506154036 55 39 4.0 10.0 0.00 0.00 0.00 100 1013.2
20260506153532 55 5 4.0 10.0 0.00 0.00 0.00 100 1013.1
20260506153043 55 79 2.0 10.0 0.00 0.00 0.00 100 1013.2
20260506152532 55 22 3.0 10.0 0.00 0.00 0.00 100 1013.2
20260506152033 55 28 2.0 10.0 0.00 0.00 0.00 100 1013.1
20260506151543 55 360 3.0 10.0 0.00 0.00 0.00 100 1013.1
20260506151034 55 350 4.0 10.0 0.00 0.00 0.00 100 1013.0
20260506150535 55 336 3.0 9.0 0.00 0.00 0.00 100 1013.0
20260506150043 55 13 3.0 9.0 0.00 0.00 0.00 100 1013.2
20260506145536 55 40 3.0 9.0 0.00 0.00 0.00 100 1013.1
20260506145033 55 63 2.0 10.0 0.00 0.00 0.00 100 1013.2
20260506144553 55 61 3.0 10.0 0.00 0.00 0.00 100 1013.1
20260506144033 54 26 2.0 10.0 0.00 0.00 0.00 100 1013.0
20260506143533 54 94 3.0 10.0 0.00 0.00 0.00 100 1013.1
20260506143044 55 360 4.0 11.0 0.00 0.00 0.00 100 1013.0
20260506142533 55 0 3.0 11.0 0.00 0.00 0.00 100 1013.1
20260506142031 55 14 5.0 11.0 0.00 0.00 0.00 100 1013.1
20260506141545 55 48 4.0 10.0 0.00 0.00 0.00 100 1013.0
20260506141032 55 30 4.0 10.0 0.00 0.00 0.00 100 1013.0
20260506140532 55 30 3.0 10.0 0.00 0.00 0.00 100 1013.1
20260506140043 54 29 2.0 10.0 0.00 0.00 0.00 100 1013.1
20260506135531 55 5 3.0 10.0 0.00 0.00 0.00 100 1013.1
20260506135031 55 16 3.0 11.0 0.00 0.00 0.00 100 1013.1
20260506134543 54 36 4.0 11.0 0.00 0.00 0.00 100 1013.2
20260506134031 55 351 3.0 9.0 0.00 0.00 0.00 100 1013.0
20260506133531 55 15 3.0 8.0 0.00 0.00 0.00 100 1013.1
20260506133101 55 39 3.0 11.0 0.00 0.00 0.00 100 1013.2
20260506132532 55 88 4.0 11.0 0.00 0.00 0.00 100 1013.2
20260506132037 55 5 2.0 10.0 0.00 0.00 0.00 100 1013.1
20260506131545 54 13 4.0 11.0 0.00 0.00 0.00 100 1013.2
20260506131034 54 55 3.0 11.0 0.00 0.00 0.00 100 1013.1
20260506130533 55 19 5.0 11.0 0.00 0.00 0.00 100 1013.2
20260506130044 56 26 4.0 10.0 0.00 0.00 0.00 100 1013.2
20260506125531 56 351 3.0 12.0 0.00 0.00 0.00 100 1013.1
20260506125031 56 99 3.0 12.0 0.00 0.00 0.00 100 1013.0
20260506124543 56 360 1.0 11.0 0.00 0.00 0.00 100 1013.0
20260506124031 56 19 2.0 11.0 0.00 0.00 0.00 100 1013.0
20260506123532 56 11 3.0 11.0 0.00 0.00 0.00 100 1013.0
20260506123046 55 11 3.0 11.0 0.00 0.00 0.00 100 1013.0
20260506122534 56 352 4.0 11.0 0.00 0.00 0.00 100 1013.0
20260506122032 56 30 3.0 9.0 0.00 0.00 0.00 100 1013.0
20260506121548 55 208 4.0 13.0 0.00 0.00 0.00 100 1013.0
20260506121034 56 157 3.0 13.0 0.00 0.00 0.00 100 1013.0
20260506120532 56 12 2.0 10.0 0.00 0.00 0.00 100 1012.9
20260506120045 56 84 2.0 11.0 0.00 0.00 0.00 100 1013.0
20260506115531 56 28 4.0 11.0 0.00 0.00 0.00 100 1013.1
20260506115031 56 53 3.0 11.0 0.00 0.00 0.00 100 1013.0
20260506114548 55 21 2.0 11.0 0.00 0.00 0.00 100 1013.0
20260506114032 56 41 3.0 11.0 0.00 0.00 0.00 100 1013.1
20260506113531 55 28 4.0 11.0 0.00 0.00 0.00 100 1013.1
20260506113042 55 80 4.0 10.0 0.00 0.00 0.00 100 1013.0
20260506112531 55 347 3.0 12.0 0.00 0.00 0.00 100 1013.0
20260506112032 55 24 5.0 12.0 0.00 0.00 0.00 100 1013.0
20260506111543 55 338 4.0 11.0 0.00 0.00 0.00 100 1013.0
20260506111031 54 347 5.0 11.0 0.00 0.00 0.00 100 1013.0
20260506110532 54 5 4.0 11.0 0.00 0.00 0.00 100 1013.0
20260506110048 54 47 5.0 14.0 0.00 0.00 0.00 100 1013.0
20260506105532 54 5 4.0 14.0 0.00 0.00 0.00 100 1013.0
20260506105033 54 20 4.0 11.0 0.00 0.00 0.00 100 1013.0
20260506104608 54 62 4.0 16.0 0.00 0.00 0.00 100 1013.1
20260506104034 53 126 4.0 16.0 0.00 0.00 0.00 100 1013.1
20260506103533 53 352 5.0 14.0 0.00 0.00 0.00 100 1013.0
20260506103045 53 34 4.0 15.0 0.00 0.00 0.00 100 1013.0
20260506102535 53 18 6.0 15.0 0.00 0.00 0.00 100 1013.2
20260506102032 53 5 5.0 16.0 0.00 0.00 0.00 100 1013.1
20260506101548 53 352 4.0 16.0 0.00 0.00 0.00 100 1012.9
20260506101034 53 360 5.0 16.0 0.00 0.00 0.00 100 1012.9
20260506100531 54 107 6.0 13.0 0.00 0.00 0.00 100 1013.0
20260506100045 53 360 5.0 13.0 0.00 0.00 0.00 100 1013.0
20260506095531 53 352 3.0 15.0 0.00 0.00 0.00 100 1013.0
20260506095032 53 5 4.0 15.0 0.00 0.00 0.00 100 1013.0
20260506094540 53 360 7.0 15.0 0.00 0.00 0.00 100 1012.9
20260506094032 53 20 5.0 16.0 0.00 0.00 0.00 100 1013.0
20260506093533 53 34 6.0 16.0 0.00 0.00 0.00 100 1013.0
20260506093037 53 360 4.0 13.0 0.00 0.00 0.00 100 1013.0
20260506092532 53 360 4.0 16.0 0.00 0.00 0.00 100 1013.0
20260506092033 52 352 6.0 16.0 0.00 0.00 0.00 100 1013.0
20260506091536 52 28 3.0 12.0 0.00 0.00 0.00 100 1012.9
20260506091035 52 352 4.0 12.0 0.00 0.00 0.00 100 1012.9
20260506090533 52 25 5.0 11.0 0.00 0.00 0.00 100 1012.9
20260506090047 51 19 5.0 12.0 0.00 0.00 0.00 100 1012.8
20260506085532 51 360 4.0 13.0 0.00 0.00 0.00 100 1012.9
20260506085031 51 32 5.0 13.0 0.00 0.00 0.00 100 1012.9
20260506084544 51 14 6.0 13.0 0.00 0.00 0.00 100 1013.0
20260506084033 51 36 5.0 11.0 0.00 0.00 0.00 100 1012.9
20260506083532 50 44 4.0 12.0 0.00 0.00 0.00 100 1012.8
20260506083043 50 49 4.0 12.0 0.00 0.00 0.00 100 1012.9
20260506082533 49 52 3.0 12.0 0.00 0.00 0.00 100 1013.0
20260506082032 49 67 5.0 14.0 0.00 0.00 0.00 100 1012.9
20260506081537 49 62 4.0 14.0 0.00 0.00 0.00 100 1012.9
20260506081032 49 352 5.0 14.0 0.00 0.00 0.00 100 1012.9
20260506080533 49 32 3.0 11.0 0.00 0.00 0.00 100 1013.0
20260506073042 50 327 3.0 10.0 0.00 0.00 0.00 100 1012.8
20260506072531 49 349 4.0 11.0 0.00 0.00 0.00 100 1012.9
20260506072032 49 360 4.0 11.0 0.00 0.00 0.00 100 1012.8
20260506071540 49 352 3.0 10.0 0.00 0.00 0.00 100 1012.9
20260506071032 49 24 3.0 10.0 0.00 0.00 0.00 100 1012.8
20260506070532 49 18 2.0 8.0 0.00 0.00 0.00 100 1012.7
20260506062032 46 32 5.0 11.0 0.00 0.00 0.00 100 1012.6
20260506061543 46 18 4.0 10.0 0.00 0.00 0.00 100 1012.6
20260506061034 46 5 4.0 10.0 0.00 0.00 0.00 100 1012.6
20260506060535 46 33 3.0 9.0 0.00 0.00 0.00 100 1012.6
20260506051032 45 11 2.0 6.0 0.00 0.00 0.00 100 1012.3
20260506050533 45 15 2.0 6.0 0.00 0.00 0.00 100 1012.4
20260506045031 45 42 2.0 6.0 0.00 0.00 0.00 100 1012.3
20260506044545 46 26 2.0 6.0 0.00 0.00 0.00 100 1012.3
20260506044032 46 0 2.0 10.0 0.00 0.00 0.00 100 1012.2
20260506043532 46 11 3.0 10.0 0.00 0.00 0.00 100 1012.2
20260506043052 46 360 3.0 9.0 0.00 0.00 0.00 100 1012.2
20260506042532 46 45 3.0 9.0 0.00 0.00 0.00 100 1012.2
20260506042032 46 32 3.0 8.0 0.00 0.00 0.00 100 1012.2
20260506041547 47 28 1.0 5.0 0.00 0.00 0.00 100 1012.2
20260506041033 47 30 1.0 9.0 0.00 0.00 0.00 100 1012.1
20260506040531 47 350 2.0 9.0 0.00 0.00 0.00 100 1012.2
20260506040050 47 5 2.0 7.0 0.00 0.00 0.00 100 1012.1
20260506035531 47 32 1.0 5.0 0.00 0.00 0.00 100 1012.1
20260506035032 47 5 1.0 8.0 0.00 0.00 0.00 100 1012.1
20260506034543 47 30 2.0 8.0 0.00 0.00 0.00 100 1012.1
20260506034033 47 10 2.0 8.0 0.00 0.00 0.00 100 1012.1
20260506033533 47 15 2.0 6.0 0.00 0.00 0.00 100 1012.1
20260506033047 47 19 2.0 10.0 0.00 0.00 0.00 100 1012.2
20260506032534 47 32 1.0 10.0 0.00 0.00 0.00 100 1012.2
20260506032032 47 40 2.0 10.0 0.00 0.00 0.00 100 1012.1
20260506031546 47 307 2.0 7.0 0.00 0.00 0.00 100 1012.2
20260506031036 48 5 2.0 7.0 0.00 0.00 0.00 100 1012.1
20260506030532 48 53 2.0 7.0 0.00 0.00 0.00 100 1012.2
20260506030043 48 21 2.0 9.0 0.00 0.00 0.00 100 1012.2
20260506025532 48 48 3.0 9.0 0.00 0.00 0.00 100 1012.3
20260506025033 48 5 2.0 10.0 0.00 0.00 0.00 100 1012.3
20260506024546 48 13 2.0 10.0 0.00 0.00 0.00 100 1012.3
20260506024032 48 86 3.0 10.0 0.00 0.00 0.00 100 1012.4
20260506023533 48 348 2.0 10.0 0.00 0.00 0.00 100 1012.4
20260506023040 48 14 3.0 10.0 0.00 0.00 0.00 100 1012.4
20260506022533 48 19 4.0 9.0 0.00 0.00 0.00 100 1012.4
20260506022033 48 317 3.0 9.0 0.00 0.00 0.00 100 1012.4
20260506021556 48 24 2.0 9.0 0.00 0.00 0.00 100 1012.4
20260506021032 48 360 4.0 8.0 0.00 0.00 0.00 100 1012.5
20260506020534 48 24 3.0 8.0 0.00 0.00 0.00 100 1012.5
20260506020044 48 26 2.0 10.0 0.00 0.00 0.00 100 1012.4
20260506015532 48 345 4.0 12.0 0.00 0.00 0.00 100 1012.6
20260506015032 48 360 5.0 12.0 0.00 0.00 0.00 100 1012.6
20260506014543 49 5 2.0 9.0 0.00 0.00 0.00 100 1012.5
20260506014031 49 5 3.0 9.0 0.00 0.00 0.00 100 1012.6
20260506013532 49 5 4.0 11.0 0.00 0.00 0.00 100 1012.5
20260506013045 49 57 3.0 11.0 0.00 0.00 0.00 100 1012.4
20260506012532 49 30 3.0 9.0 0.00 0.00 0.00 100 1012.5
20260506012032 49 5 4.0 8.0 0.00 0.00 0.00 100 1012.5
20260506011546 49 36 2.0 6.0 0.00 0.00 0.00 100 1012.5
20260506011033 49 22 3.0 7.0 0.00 0.00 0.00 100 1012.5
20260506010533 49 52 3.0 9.0 0.00 0.00 0.00 100 1012.4
20260506010053 49 5 2.0 9.0 0.00 0.00 0.00 100 1012.5
20260506005532 49 78 4.0 9.0 0.00 0.00 0.00 100 1012.5
20260506005031 49 24 3.0 9.0 0.00 0.00 0.00 100 1012.4
20260506004544 49 22 3.0 10.0 0.00 0.00 0.00 100 1012.4
20260506004032 50 15 3.0 10.0 0.00 0.00 0.00 100 1012.5
20260506003532 50 17 3.0 10.0 0.00 0.00 0.00 100 1012.5
20260506003040 50 10 2.0 11.0 0.00 0.00 0.00 100 1012.5
20260506002532 50 27 2.0 11.0 0.00 0.00 0.00 100 1012.5
20260506002033 50 13 4.0 11.0 0.00 0.00 0.00 100 1012.5
20260506001541 50 11 4.0 12.0 0.00 0.00 0.00 100 1012.5
20260506001032 50 42 3.0 12.0 0.00 0.00 0.00 100 1012.5
20260506000532 50 5 4.0 12.0 0.00 0.00 0.00 100 1012.5
20260506000039 50 5 4.0 11.0 0.00 0.00 0.00 100 1012.5
20260505235532 51 360 4.0 9.0 0.00 0.00 0.00 100 1012.5
20260505235035 51 58 3.0 8.0 0.00 0.00 0.00 100 1012.5
20260505234604 51 5 1.0 6.0 0.00 0.00 0.00 100 1012.6
20260505234033 51 32 2.0 6.0 0.00 0.00 0.00 100 1012.6
20260505233532 51 40 1.0 6.0 0.00 0.00 0.00 100 1012.5
20260505233047 51 15 2.0 5.0 0.00 0.00 0.00 100 1012.6
20260505232535 51 30 2.0 5.0 0.00 0.00 0.00 100 1012.6
20260505232032 51 9 1.0 5.0 0.00 0.00 0.00 100 1012.6
20260505231542 51 17 1.0 5.0 0.00 0.00 0.00 100 1012.8
20260505231035 51 5 3.0 8.0 0.00 0.00 0.00 100 1012.8
20260505230534 51 15 3.0 8.0 0.00 0.00 0.00 100 1012.6
20260505230042 51 5 1.0 4.0 0.00 0.00 0.00 100 1012.7
20260505225535 51 32 1.0 4.0 0.00 0.00 0.00 100 1012.7
20260505225033 51 43 1.0 5.0 0.00 0.00 0.00 100 1012.8
20260505224544 51 41 2.0 7.0 0.00 0.00 0.00 100 1012.9
20260505224031 51 322 2.0 7.0 0.00 0.00 0.00 100 1012.8
20260505223532 51 21 2.0 7.0 0.00 0.00 0.00 100 1012.6
20260505223057 51 64 2.0 6.0 0.00 0.00 0.00 100 1012.8
20260505222532 51 49 2.0 9.0 0.00 0.00 0.00 100 1012.8
20260505222032 51 30 2.0 9.0 0.00 0.00 0.00 100 1012.8
20260505221543 51 14 2.0 8.0 0.00 0.00 0.00 100 1012.9
20260505221031 51 360 1.0 4.0 0.00 0.00 0.00 100 1012.8
20260505220532 52 30 1.0 5.0 0.00 0.00 0.00 100 1012.8
20260505220043 52 5 1.0 6.0 0.00 0.00 0.00 100 1012.7
20260505215534 52 39 2.0 6.0 0.00 0.00 0.00 100 1012.8